Duluth, MN

11:44 AM CST on January 21, 2018 (GMT -0600)
Duluth International

Weather History for KDLH - February, 2013

Change the Weather History Date:

Wednesday, February 6, 2013

  Actual Average Record
Temperature  
Mean Temperature 16 °F 12 °F  
Max Temperature 23 °F 22 °F 51 °F (1925)
Min Temperature 9 °F 3 °F -31 °F (1936)
Degree Days  
Heating Degree Days 49 53  
Month to date heating degree days 375 320  
Since 1 July heating degree days 5478 5788  
Cooling Degree Days 0 0  
Month to date cooling degree days 0 0  
Year to date cooling degree days 0 0  
Moisture  
Dew Point 11 °F    
Average Humidity 75    
Maximum Humidity 92    
Minimum Humidity 58    
Precipitation  
Precipitation 0.16 in 0.02 in 0.35 in (1927)
Month to date precipitation 0.33 0.14  
Year to date precipitation 1.72 1.10  
Snow  
Snow 2.80 in 0.40 in 2.80 in (2013)
Month to date snowfall 6.0 2.6  
Since 1 July snowfall 39.7 55.8  
Snow Depth 10.00 in    
Sea Level Pressure  
Sea Level Pressure 30.07 in    
Wind  
Wind Speed 7 mph (ESE)    
Max Wind Speed 18 mph    
Max Gust Speed 24 mph    
Visibility 5 miles    
Events Fog , Snow    
T = Trace of Precipitation, MM = Missing Value Source: NWS Daily Summary

Daily Weather History Graph

Daily Weather History Graph

Search for Another Location

Airport or City:

Trip Planner

Search our weather history database for the weather conditions in past years. The results will help you decide how hot, cold, wet, or windy it might be!

Date:

Astronomy

Feb. 06, 2013 Rise Set
Actual Time 7:26 AM CST 5:20 PM CST
Civil Twilight 6:54 AM CST 5:52 PM CST
Nautical Twilight 6:18 AM CST 6:28 PM CST
Astronomical Twilight 5:42 AM CST 7:03 PM CST
Moon 4:17 AM CST (2/6) 1:31 PM CST (2/6)
Length of Visible Light 10h 57m
Length of Day
9h 53m
Waning Crescent, 17% of the Moon is Illuminated
Feb 6
Waning Crescent
Feb 10
New
Feb 17
First Quarter
Feb 25
Full
Mar 4
Last Quarter

Hourly Weather History & Observations

Time (CST) Temp. Windchill Dew Point Humidity Pressure Visibility Wind Dir Wind Speed Gust Speed Precip Events Conditions
12:55 AM 10.0 °F - -0.9 °F 61% 30.10 in 10.0 mi Calm Calm - N/A   Overcast
1:55 AM 10.0 °F - -0.9 °F 61% 30.11 in 10.0 mi Calm Calm - N/A   Overcast
2:55 AM 10.0 °F - 1.0 °F 67% 30.11 in 10.0 mi Calm Calm - N/A   Overcast
3:55 AM 10.0 °F 1.8 °F -0.9 °F 61% 30.09 in 10.0 mi SSE 4.6 mph - N/A   Overcast
4:55 AM 10.9 °F 2.9 °F 1.9 °F 67% 30.09 in 10.0 mi SSE 4.6 mph - N/A   Overcast
5:55 AM 10.9 °F - 3.0 °F 70% 30.10 in 10.0 mi Calm Calm - N/A   Overcast
6:55 AM 12.0 °F 5.9 °F 1.9 °F 64% 30.12 in 10.0 mi SSE 3.5 mph - N/A   Overcast
7:55 AM 12.9 °F 5.2 °F 3.0 °F 65% 30.13 in 10.0 mi South 4.6 mph - N/A   Overcast
8:55 AM 14.0 °F 3.9 °F 1.9 °F 59% 30.12 in 10.0 mi South 6.9 mph - N/A   Overcast
9:55 AM 16.0 °F 6.3 °F 3.0 °F 57% 30.12 in 10.0 mi SSE 6.9 mph - N/A   Overcast
10:35 AM 17.6 °F 10.7 °F 5.0 °F 58% 30.03 in 2.5 mi SSE 4.6 mph - 0.00 in Snow Light Snow
10:45 AM 15.8 °F 7.2 °F 6.8 °F 68% 30.03 in 1.8 mi South 5.8 mph - 0.00 in Snow Light Snow
10:55 AM 16.0 °F 10.4 °F 8.1 °F 71% 30.13 in 1.8 mi SSE 3.5 mph - 0.01 in Snow Light Snow
11:05 AM 15.8 °F 8.6 °F 8.6 °F 73% 30.03 in 2.0 mi SSE 4.6 mph - 0.00 in Snow Light Snow
11:21 AM 15.8 °F 10.2 °F 10.4 °F 79% 30.03 in 1.2 mi South 3.5 mph - 0.00 in Snow Light Snow
11:33 AM 15.8 °F 7.2 °F 10.4 °F 79% 30.03 in 0.8 mi SSE 5.8 mph - 0.00 in Snow Light Snow
11:55 AM 16.0 °F 6.3 °F 10.9 °F 81% 30.13 in 0.8 mi SSE 6.9 mph - 0.01 in Snow Light Snow
12:55 PM 17.1 °F 10.0 °F 12.0 °F 81% 30.12 in 0.8 mi SE 4.6 mph - 0.03 in Snow Light Snow
1:55 PM 17.1 °F 7.6 °F 12.0 °F 81% 30.10 in 0.8 mi ESE 6.9 mph - 0.02 in Snow Light Snow
2:12 PM 17.6 °F 5.7 °F 12.2 °F 79% 29.99 in 0.5 mi East 10.4 mph - 0.01 in Fog , Snow Light Snow
2:20 PM 17.6 °F 5.7 °F 12.2 °F 79% 29.98 in 0.8 mi East 10.4 mph - 0.01 in Snow Light Snow
2:37 PM 17.6 °F 5.7 °F 12.2 °F 79% 29.97 in 0.8 mi East 10.4 mph - 0.02 in Snow Light Snow
2:55 PM 17.1 °F 5.0 °F 12.9 °F 84% 30.07 in 0.8 mi ESE 10.4 mph - 0.03 in Snow Light Snow
3:45 PM 17.6 °F 5.7 °F 14.0 °F 86% 29.98 in 2.5 mi East 10.4 mph - 0.02 in Snow Light Snow
3:53 PM 17.6 °F 5.0 °F 14.0 °F 86% 29.97 in 4.0 mi East 11.5 mph - 0.02 in Snow Light Snow
3:55 PM 18.0 °F 6.1 °F 14.0 °F 84% 30.07 in 5.0 mi East 10.4 mph - 0.02 in Snow Light Snow
4:16 PM 19.4 °F 7.9 °F 15.8 °F 86% 29.97 in 6.0 mi East 10.4 mph - 0.01 in Snow Light Snow
4:23 PM 19.4 °F 7.2 °F 15.8 °F 86% 29.97 in 5.0 mi East 11.5 mph - 0.01 in Snow Light Snow
4:55 PM 19.0 °F 6.8 °F 16.0 °F 88% 30.07 in 7.0 mi East 11.5 mph - 0.01 in   Overcast
5:55 PM 19.9 °F 7.3 °F 17.1 °F 89% 30.08 in 8.0 mi East 12.7 mph - 0.00 in Snow Light Snow
6:55 PM 19.9 °F 7.9 °F 17.1 °F 89% 30.09 in 4.0 mi East 11.5 mph - 0.01 in Snow Light Snow
7:25 PM 19.4 °F 5.5 °F 17.6 °F 93% 30.00 in 3.0 mi East 15.0 mph - 0.00 in Snow Light Freezing Drizzle
7:42 PM 19.4 °F 5.5 °F 17.6 °F 93% 30.00 in 2.5 mi East 15.0 mph - 0.00 in Snow Light Freezing Drizzle
7:53 PM 19.4 °F 6.6 °F 17.6 °F 93% 30.01 in 2.5 mi East 12.7 mph - 0.00 in Snow Light Freezing Drizzle
7:55 PM 19.9 °F 6.2 °F 18.0 °F 92% 30.10 in 2.5 mi East 15.0 mph - 0.00 in Snow Light Freezing Drizzle
8:30 PM 21.2 °F 7.8 °F 17.6 °F 86% 30.01 in 2.0 mi East 15.0 mph - 0.00 in Snow Light Snow
8:55 PM 21.0 °F 8.6 °F 18.0 °F 88% 30.11 in 2.0 mi East 12.7 mph 20.7 mph 0.01 in Snow Light Snow
9:55 PM 21.9 °F 9.2 °F 19.0 °F 89% 30.11 in 3.0 mi East 13.8 mph - 0.00 in Snow Light Snow
10:55 PM 21.9 °F 10.4 °F 19.0 °F 89% 30.12 in 9.0 mi East 11.5 mph - 0.01 in Snow Light Snow
11:55 PM 23.0 °F 12.4 °F 19.0 °F 85% 30.14 in 9.0 mi East 10.4 mph - 0.00 in Snow Light Snow